• In Sweden
  • List of Countries
  • For 7 days
  • Water Temperature
  • Satellite Maps
  • Weather Map
  • Weather Widgets
  • user-avatar
    Login

    Hourly Weather Ahlat

    Today, 17 October, Wednesday

    Time Temperature Precipitation Wind Pressure Humidity
    00:00 +13°C° 0 mm 2 mps 622 mmHg 50%
    01:00 +13°C° 0 mm 2 mps 622 mmHg 52%
    02:00 +12°C° 0 mm 2 mps 622 mmHg 54%
    03:00 +12°C° 0 mm 2 mps 622 mmHg 56%
    04:00 +10°C° 0 mm 2 mps 622 mmHg 58%
    05:00 +10°C° 0 mm 2 mps 622 mmHg 59%
    06:00 +9°C° 0 mm 2 mps 622 mmHg 61%
    07:00 +12°C° 0 mm 2 mps 622 mmHg 55%
    08:00 +14°C° 0 mm 2 mps 623 mmHg 50%
    09:00 +15°C° 0 mm 2 mps 623 mmHg 45%
    10:00 +17°C° 0 mm 2 mps 623 mmHg 41%
    11:00 +18°C° 0 mm 2 mps 623 mmHg 37%
    12:00 +19°C° 0 mm 2 mps 623 mmHg 34%
    13:00 +20°C° 0 mm 1 mps 623 mmHg 32%
    14:00 +21°C° 0 mm 1 mps 623 mmHg 31%
    15:00 +21°C° 0 mm 1 mps 623 mmHg 29%
    16:00 +19°C° 0.1 mm 1 mps 622 mmHg 33%
    17:00 +18°C° 0.1 mm 1 mps 622 mmHg 38%
    18:00 +16°C° 0.1 mm 1 mps 622 mmHg 42%
    19:00 +14°C° 0 mm 0 mps 622 mmHg 44%
    20:00 +13°C° 0 mm 0 mps 622 mmHg 47%
    21:00 +12°C° 0 mm 0 mps 622 mmHg 49%
    22:00 +13°C° 0 mm 1 mps 622 mmHg 50%
    23:00 +13°C° 0 mm 1 mps 622 mmHg 51%

    Tomorrow, 18 October, Thursday

    Time Temperature Precipitation Wind Pressure Humidity
    00:00 +12°C° 0 mm 1 mps 621 mmHg 52%
    01:00 +12°C° 0 mm 1 mps 621 mmHg 55%
    02:00 +11°C° 0 mm 1 mps 621 mmHg 57%
    03:00 +11°C° 0 mm 1 mps 621 mmHg 60%
    04:00 +10°C° 0 mm 1 mps 621 mmHg 62%
    05:00 +9°C° 0 mm 2 mps 621 mmHg 65%
    06:00 +9°C° 0 mm 2 mps 621 mmHg 67%
    07:00 +12°C° 0 mm 2 mps 621 mmHg 60%
    08:00 +13°C° 0 mm 1 mps 622 mmHg 53%
    09:00 +15°C° 0 mm 1 mps 622 mmHg 46%
    10:00 +18°C° 0 mm 1 mps 623 mmHg 41%
    11:00 +19°C° 0 mm 1 mps 623 mmHg 36%
    12:00 +20°C° 0 mm 1 mps 623 mmHg 32%
    13:00 +21°C° 0 mm 1 mps 623 mmHg 30%
    14:00 +21°C° 0 mm 1 mps 622 mmHg 29%
    15:00 +22°C° 0 mm 1 mps 622 mmHg 27%
    16:00 +20°C° 0 mm 1 mps 622 mmHg 32%
    17:00 +18°C° 0 mm 1 mps 621 mmHg 36%
    18:00 +15°C° 0 mm 1 mps 621 mmHg 41%
    19:00 +15°C° 0 mm 1 mps 621 mmHg 43%
    20:00 +14°C° 0 mm 1 mps 621 mmHg 45%
    21:00 +13°C° 0 mm 1 mps 621 mmHg 47%
    22:00 +13°C° 0 mm 1 mps 621 mmHg 49%
    23:00 +13°C° 0 mm 1 mps 621 mmHg 50%

    Day after tomorrow, 19 October, Friday

    Time Temperature Precipitation Wind Pressure Humidity
    00:00 +12°C° 0 mm 1 mps 621 mmHg 52%
    01:00 +12°C° 0 mm 1 mps 621 mmHg 53%
    02:00 +11°C° 0 mm 1 mps 621 mmHg 55%
    03:00 +11°C° 0 mm 1 mps 620 mmHg 57%
    04:00 +11°C° 0 mm 1 mps 620 mmHg 58%
    05:00 +10°C° 0 mm 1 mps 620 mmHg 60%
    06:00 +10°C° 0 mm 1 mps 620 mmHg 61%
    07:00 +12°C° 0 mm 1 mps 621 mmHg 54%
    08:00 +14°C° 0 mm 1 mps 622 mmHg 47%
    09:00 +16°C° 0 mm 1 mps 622 mmHg 39%
    10:00 +19°C° 0 mm 1 mps 622 mmHg 36%
    11:00 +20°C° 0 mm 1 mps 622 mmHg 33%
    12:00 +21°C° 0 mm 1 mps 622 mmHg 29%
    13:00 +21°C° 0 mm 1 mps 622 mmHg 28%
    14:00 +22°C° 0 mm 1 mps 622 mmHg 27%
    15:00 +21°C° 0 mm 2 mps 622 mmHg 26%
    16:00 +20°C° 0.1 mm 1 mps 621 mmHg 30%
    17:00 +19°C° 0.1 mm 1 mps 621 mmHg 34%
    18:00 +16°C° 0.1 mm 1 mps 621 mmHg 39%
    19:00 +15°C° 0 mm 1 mps 621 mmHg 41%
    20:00 +15°C° 0 mm 1 mps 621 mmHg 43%
    21:00 +14°C° 0 mm 1 mps 621 mmHg 45%
    22:00 +13°C° 0 mm 1 mps 621 mmHg 46%
    23:00 +13°C° 0 mm 1 mps 621 mmHg 47%

    20 October, Saturday

    Time Temperature Precipitation Wind Pressure Humidity
    00:00 +12°C° 0 mm 1 mps 620 mmHg 49%
    01:00 +12°C° 0 mm 1 mps 620 mmHg 50%
    02:00 +12°C° 0 mm 1 mps 620 mmHg 51%
    03:00 +11°C° 0 mm 1 mps 620 mmHg 52%
    04:00 +11°C° 0 mm 1 mps 620 mmHg 53%
    05:00 +11°C° 0 mm 1 mps 620 mmHg 54%
    06:00 +10°C° 0 mm 1 mps 620 mmHg 55%
    07:00 +12°C° 0 mm 1 mps 620 mmHg 49%
    08:00 +15°C° 0 mm 1 mps 621 mmHg 42%
    09:00 +18°C° 0 mm 1 mps 622 mmHg 36%
    10:00 +18°C° 0 mm 2 mps 622 mmHg 33%
    11:00 +19°C° 0 mm 2 mps 622 mmHg 31%
    12:00 +20°C° 0 mm 2 mps 622 mmHg 28%
    13:00 +20°C° 0.1 mm 3 mps 622 mmHg 28%
    14:00 +20°C° 0.1 mm 3 mps 621 mmHg 28%
    15:00 +21°C° 0.1 mm 3 mps 621 mmHg 28%
    16:00 +19°C° 0.1 mm 3 mps 621 mmHg 33%
    17:00 +18°C° 0.1 mm 2 mps 621 mmHg 37%
    18:00 +16°C° 0.1 mm 2 mps 620 mmHg 42%
    19:00 +15°C° 0.1 mm 2 mps 620 mmHg 45%
    20:00 +15°C° 0.1 mm 1 mps 620 mmHg 48%
    21:00 +14°C° 0.1 mm 1 mps 620 mmHg 52%
    22:00 +14°C° 0 mm 1 mps 620 mmHg 53%
    23:00 +13°C° 0 mm 1 mps 620 mmHg 55%

    21 October, Sunday

    Time Temperature Precipitation Wind Pressure Humidity
    00:00 +13°C° 0 mm 1 mps 619 mmHg 56%
    01:00 +13°C° 0 mm 1 mps 619 mmHg 57%
    02:00 +12°C° 0 mm 1 mps 619 mmHg 58%
    03:00 +12°C° 0 mm 1 mps 619 mmHg 60%
    04:00 +12°C° 0.1 mm 1 mps 619 mmHg 60%
    05:00 +12°C° 0.1 mm 1 mps 619 mmHg 61%
    06:00 +12°C° 0.1 mm 1 mps 619 mmHg 62%
    07:00 +13°C° 0.2 mm 1 mps 619 mmHg 60%
    08:00 +13°C° 0.2 mm 1 mps 619 mmHg 58%
    09:00 +14°C° 0.2 mm 1 mps 620 mmHg 57%
    10:00 +14°C° 0.2 mm 1 mps 620 mmHg 55%
    11:00 +15°C° 0.2 mm 2 mps 619 mmHg 53%
    12:00 +16°C° 0.2 mm 2 mps 619 mmHg 51%
    13:00 +16°C° 0.1 mm 3 mps 619 mmHg 49%
    14:00 +17°C° 0.1 mm 3 mps 619 mmHg 47%
    15:00 +17°C° 0.1 mm 3 mps 619 mmHg 45%
    16:00 +16°C° 0.1 mm 3 mps 619 mmHg 50%
    17:00 +15°C° 0.1 mm 2 mps 618 mmHg 55%
    18:00 +14°C° 0.1 mm 2 mps 618 mmHg 60%
    19:00 +13°C° 0.1 mm 2 mps 618 mmHg 63%
    20:00 +13°C° 0.1 mm 1 mps 618 mmHg 66%
    21:00 +12°C° 0.1 mm 1 mps 618 mmHg 69%
    22:00 +12°C° 0.1 mm 1 mps 618 mmHg 70%
    23:00 +12°C° 0.1 mm 1 mps 618 mmHg 71%

    22 October, Monday

    Time Temperature Precipitation Wind Pressure Humidity
    00:00 +12°C° 0.1 mm 1 mps 618 mmHg 71%
    01:00 +12°C° 0.1 mm 1 mps 618 mmHg 73%
    02:00 +11°C° 0.1 mm 1 mps 618 mmHg 74%
    03:00 +11°C° 0.1 mm 1 mps 618 mmHg 75%
    04:00 +11°C° 0.1 mm 1 mps 619 mmHg 77%
    05:00 +10°C° 0.1 mm 1 mps 619 mmHg 78%
    06:00 +10°C° 0.1 mm 1 mps 619 mmHg 79%
    07:00 +11°C° 0 mm 1 mps 620 mmHg 72%
    08:00 +13°C° 0 mm 2 mps 620 mmHg 65%
    09:00 +14°C° 0 mm 2 mps 621 mmHg 58%
    10:00 +14°C° 0 mm 3 mps 621 mmHg 54%
    11:00 +15°C° 0 mm 4 mps 621 mmHg 49%
    12:00 +17°C° 0 mm 4 mps 622 mmHg 45%
    13:00 +17°C° 0 mm 4 mps 622 mmHg 43%
    14:00 +16°C° 0 mm 5 mps 621 mmHg 42%
    15:00 +16°C° 0 mm 5 mps 621 mmHg 41%
    16:00 +15°C° 0 mm 4 mps 621 mmHg 46%
    17:00 +14°C° 0 mm 3 mps 621 mmHg 52%
    18:00 +12°C° 0 mm 3 mps 621 mmHg 57%
    19:00 +13°C° 0 mm 2 mps 621 mmHg 61%
    20:00 +12°C° 0 mm 2 mps 621 mmHg 65%
    21:00 +10°C° 0 mm 2 mps 622 mmHg 68%
    22:00 +10°C° 0 mm 2 mps 622 mmHg 70%
    23:00 +11°C° 0 mm 1 mps 622 mmHg 72%
    Show more